Location: Hermaringen
(48.5952°N, 10.2585°E)
Time: 19:54:25
(UTC+00:00)

S-56A Canister/Altair - Pass Details

Date: 18 February 2026
Orbit: 633 x 2484 km, 38.9° (Epoch: 13 March)

Event Time Altitude Azimuth Distance (km) Brightness Sun altitude
Exits shadow 02:55:13 37° 176° (S) 2,439 9.8 -34.3°
Drops below altitude 10° 03:04:23 10° 132° (SE) 4,586 11.7 -32.9°
Sets 03:08:50 0° 126° (SE) 5,814 12.4 -32.2°
